Theta_e
324 323 324 324 323 323 322 322 321 321 321 320 320 322 322 323 325 324 324 323 323 322 321 320 319 320 321 320 319 319 319 317 317 316 314 315 314 314 315 315 314 314
324 325 328 328 327 327 327 324 324 323 323 322 322 323 323 324 324 325 324 323 324 324 323 321 321 320 319 319 318 317 317 317 317 320 316 315 315 315 315 315 315 315
323 323 324 325 326 325 325 324 324 323 323 323 323 323 324 325 325 325 324 324 323 323 323 323 322 322 321 319 318 317 317 316 316 317 318 317 317 316 316 316 315 315
322 323 324 325 324 325 325 324 323 323 323 323 324 325 326 326 327 326 325 329 326 325 324 323 323 323 323 322 320 318 317 317 317 317 317 317 318 317 316 316 318 317
323 323 323 324 324 325 324 323 324 324 323 324 324 325 326 326 326 325 326 325 324 325 325 324 323 323 323 323 322 320 320 319 318 317 316 316 317 317 318 318 317 316
323 324 324 324 324 323 322 323 324 324 324 324 324 326 325 325 324 325 325 325 325 325 325 325 324 324 324 323 322 321 321 320 320 318 317 316 317 317 317 317 317 316
324 323 323 323 323 323 323 322 323 325 324 324 324 324 324 324 324 325 325 325 325 325 325 325 325 325 325 324 323 323 323 321 321 319 317 317 318 317 318 317 317 316
324 323 323 322 322 321 322 322 322 322 323 325 323 324 324 324 324 324 324 323 323 324 324 324 324 324 324 324 323 323 323 323 322 321 319 319 318 317 319 318 318 317
322 322 321 320 321 320 322 322 323 323 324 324 324 324 325 325 325 324 324 324 323 324 323 323 323 323 323 323 323 322 322 323 323 322 321 321 320 320 320 320 318 318
320 320 320 321 322 322 323 322 322 322 325 324 325 324 323 324 324 324 324 323 323 322 322 321 321 320 320 320 320 321 321 321 322 322 321 321 321 321 321 321 319 318
319 320 321 321 322 321 322 323 323 324 325 323 323 323 322 323 324 324 323 322 321 321 320 319 319 319 319 319 319 319 319 320 320 320 321 321 321 320 322 321 320 320
320 320 321 321 322 322 322 322 322 322 322 323 322 321 321 322 322 323 323 321 320 320 319 318 318 317 317 318 319 319 319 320 320 320 320 320 320 320 320 321 320 320
320 321 320 321 322 321 321 321 321 321 321 321 322 321 321 321 321 321 321 320 319 318 317 316 316 316 316 317 318 318 318 318 318 318 318 318 319 319 320 320 320 320
319 319 320 320 320 320 319 319 319 319 320 320 320 319 319 320 320 319 319 317 316 315 315 314 313 312 313 314 316 316 316 315 315 315 315 315 316 316 317 318 319 319
319 320 320 320 319 318 317 317 317 317 317 318 318 319 320 319 320 318 315 314 313 313 311 311 310 310 311 313 315 313 314 313 313 312 313 313 313 313 314 315 316 317
319 319 318 318 317 317 316 315 315 315 315 315 315 317 318 318 317 315 313 311 310 309 309 309 308 309 311 308 312 314 311 311 311 311 311 311 311 311 312 313 314 314
317 317 317 317 317 316 315 314 313 313 313 314 314 316 316 316 313 311 310 310 309 307 307 307 307 308 303 298 300 306 310 309 309 308 309 309 309 309 309 311 312 313
316 316 316 315 315 314 313 312 312 312 312 313 315 315 315 314 312 310 309 308 308 307 307 307 307 305 297 298 299 299 306 309 308 307 307 307 308 308 308 309 310 312
315 314 313 313 312 312 312 311 310 311 312 313 313 314 314 312 310 309 308 308 307 306 306 307 306 303 297 298 298 297 299 306 306 306 306 306 306 306 307 306 307 309
313 312 311 311 311 310 310 309 309 308 309 311 313 313 312 311 310 309 308 308 307 307 306 306 305 303 297 297 297 297 297 300 304 304 304 304 304 305 306 306 306 308
311 310 310 309 309 308 308 307 307 307 308 310 311 312 311 309 308 308 309 309 307 306 305 304 305 297 295 296 296 297 297 301 303 303 303 303 303 303 304 305 305 307
310 309 309 308 308 307 306 305 305 307 307 309 310 309 311 311 310 309 308 307 306 305 303 303 302 292 292 294 296 297 299 304 302 302 302 302 302 302 303 303 305 308
309 309 308 308 307 306 305 305 305 305 306 308 308 309 309 309 309 309 309 307 307 304 303 302 302 294 289 293 295 297 299 302 302 302 302 301 301 302 302 302 305 308
309 309 308 307 306 305 305 305 305 304 305 308 307 307 308 308 309 309 309 309 305 303 302 302 301 298 290 293 294 297 303 301 302 301 301 301 301 302 302 302 304 309
309 309 307 306 305 306 305 305 304 304 306 305 306 308 308 309 311 309 309 309 309 309 310 303 302 301 293 292 294 296 302 301 302 301 301 300 300 302 302 301 302 304
309 309 307 306 305 305 305 304 306 304 303 303 304 307 307 308 309 307 307 307 306 304 305 301 300 301 298 292 295 295 297 304 301 301 300 300 300 302 300 301 301 302
Wind_Speed
4 3 4 3 4 4 4 3 3 4 4 4 4 5 4 5 4 4 5 4 5 5 5 5 5 5 4 4 4 4 4 5 5 4 5 4 5 5 5 5 5 5
4 3 2 2 3 3 4 3 4 4 5 4 5 5 5 4 6 3 4 5 4 5 5 5 5 5 5 5 5 5 5 5 6 4 5 6 6 5 6 7 6 4
3 3 4 4 5 4 4 3 3 4 4 5 4 4 5 4 5 5 4 4 5 5 5 5 5 6 6 6 5 5 5 6 7 6 5 7 6 6 6 6 5 6
4 5 4 5 4 5 3 3 4 4 3 5 5 5 4 4 4 5 5 5 5 6 5 5 6 5 5 6 5 5 6 6 7 5 6 6 6 6 7 5 6 5
4 4 4 4 4 3 3 3 5 4 4 5 5 4 4 4 4 5 5 5 5 6 5 6 5 6 5 5 5 6 6 7 6 5 6 7 7 5 6 5 6 7
4 4 4 3 3 3 4 4 5 4 5 5 5 4 4 4 4 5 4 5 5 5 6 5 6 6 5 5 5 6 6 6 6 4 6 8 8 5 5 5 6 7
6 4 5 3 3 3 3 3 4 3 4 4 4 4 3 4 4 4 4 4 5 5 5 6 6 6 4 4 5 6 6 6 6 5 6 7 6 8 6 6 7 8
6 4 3 2 3 4 3 3 3 3 4 3 4 4 3 4 4 4 4 4 4 5 5 5 5 6 5 4 5 6 6 4 5 5 6 7 6 8 8 5 5 7
4 3 2 2 2 2 2 3 3 4 3 3 3 3 3 3 4 4 5 5 6 6 6 6 6 6 6 5 5 5 6 6 5 5 5 6 6 7 6 5 5 6
2 2 1 1 1 1 2 3 3 3 1 4 4 5 6 5 6 6 7 7 7 7 7 7 8 7 7 7 7 7 6 6 6 5 5 5 5 6 6 5 5 5
1 0 0 1 1 2 1 2 4 5 4 6 5 7 6 6 7 7 8 8 7 8 8 8 8 8 8 8 7 6 7 7 7 6 6 6 5 5 5 5 5 5
2 1 2 3 2 3 5 5 5 5 6 5 6 7 7 7 7 7 6 8 8 8 8 8 8 8 8 7 7 6 6 6 6 7 7 7 7 7 7 6 6 6
3 4 3 4 5 5 5 5 6 6 6 6 5 7 7 7 7 8 6 8 8 8 8 8 8 8 8 9 8 8 8 8 7 7 7 6 7 7 7 7 7 8
2 4 6 6 5 5 6 6 6 6 6 5 6 7 7 7 7 8 6 8 8 7 7 7 8 9 8 8 7 8 7 7 7 8 7 8 8 8 8 8 8 9
6 5 6 6 6 6 6 7 6 6 6 6 6 6 6 7 7 7 8 8 7 6 8 8 8 7 6 6 6 8 7 8 8 8 8 8 8 8 8 7 8 9
7 6 7 6 7 7 7 6 7 6 7 7 7 7 7 7 8 7 8 7 7 8 7 7 7 6 8 12 10 6 7 6 7 7 7 7 7 7 8 8 7 8
8 7 7 7 7 7 6 7 7 7 7 7 7 7 8 7 7 8 7 7 7 7 8 7 6 6 10 11 12 11 7 7 7 7 7 7 7 7 7 7 8 8
8 8 8 7 7 7 7 7 6 7 8 7 8 9 7 7 8 7 7 6 6 7 8 6 6 8 10 11 11 11 8 6 6 6 7 7 7 7 6 6 7 7
8 9 9 8 7 7 6 7 8 7 7 8 9 7 7 8 7 7 7 6 7 8 7 6 6 8 9 10 10 10 10 7 6 6 6 7 7 7 7 7 6 6
9 9 9 8 7 7 7 7 8 7 6 7 8 7 8 7 6 7 6 6 6 7 6 5 5 6 8 9 9 9 9 7 6 6 6 6 7 7 7 7 7 6
9 9 9 8 7 7 7 8 8 7 7 6 7 8 8 7 7 7 5 6 6 6 6 6 4 6 7 9 9 8 8 6 5 5 6 6 6 6 6 6 7 5
10 9 9 8 8 8 8 8 7 8 9 7 7 6 5 6 5 5 6 6 5 5 6 6 4 7 7 7 7 7 7 5 5 6 7 6 6 6 6 6 6 6
9 10 9 9 9 9 8 8 8 7 7 6 8 7 7 6 5 5 5 6 5 5 7 6 5 5 6 6 6 5 5 5 5 5 6 6 5 6 5 6 6 7
9 10 10 9 9 10 9 6 5 5 7 6 9 8 7 6 6 5 4 5 5 5 5 6 4 4 5 6 6 6 5 5 4 5 6 6 6 6 5 5 7 14
8 9 10 9 9 8 8 8 7 6 4 4 6 7 7 6 5 6 5 3 4 4 7 6 4 3 3 5 6 7 6 4 4 5 6 6 6 6 5 5 6 8
8 9 9 9 9 8 8 8 6 6 5 5 5 6 6 5 5 5 6 4 4 6 4 3 4 3 2 5 7 9 8 4 4 6 6 5 4 4 5 6 5 6
Wind_Direction
226 209 233 236 243 229 251 266 256 248 263 250 247 269 253 270 265 239 244 245 241 248 253 248 248 252 253 253 245 246 243 244 256 248 240 247 252 250 269 265 241 235
229 217 243 240 256 249 246 224 248 226 257 249 244 263 275 275 280 255 251 246 244 244 248 250 246 246 252 251 247 242 254 252 261 237 237 241 248 243 255 257 257 251
248 246 238 243 250 263 262 252 235 242 246 257 262 254 269 269 280 283 272 261 261 260 252 243 247 244 243 244 241 241 249 250 253 252 240 247 248 244 247 252 256 247
247 233 237 245 244 256 273 286 274 258 258 270 256 251 243 263 261 278 284 278 268 273 267 260 251 253 241 244 238 244 247 251 249 252 253 257 245 239 250 242 249 256
242 251 240 249 254 259 271 266 272 269 259 261 283 281 270 274 274 271 274 277 273 281 285 278 274 265 258 255 239 254 251 255 257 242 249 262 256 239 252 234 245 253
259 244 252 245 254 250 263 253 268 298 309 318 303 320 314 298 290 291 291 291 277 267 276 270 267 266 260 262 260 252 260 263 266 245 254 261 272 257 259 249 248 253
256 256 262 262 269 255 275 326 346 316 284 259 292 297 289 288 277 272 276 278 294 296 294 298 291 289 257 246 246 259 256 252 266 246 248 261 261 272 252 243 246 254
253 259 269 331 339 6 357 297 274 270 261 276 282 291 284 292 301 310 319 323 324 326 320 310 308 299 304 276 268 271 275 257 258 246 246 258 261 268 274 264 262 271
260 294 20 28 28 330 303 271 262 271 291 298 328 330 341 354 355 13 21 30 31 21 9 1 351 342 335 333 313 298 297 298 288 274 267 275 274 273 281 284 265 256
320 26 58 52 331 245 254 275 306 324 345 71 71 66 58 42 45 45 51 51 50 37 33 28 21 17 16 17 5 349 333 328 326 316 302 292 295 298 301 299 277 279
317 4 133 176 227 234 291 65 80 86 78 82 82 70 60 61 52 50 55 50 47 39 34 30 25 21 24 20 19 15 12 8 3 358 355 348 342 331 332 329 315 301
228 182 190 202 180 115 114 104 92 85 81 67 72 80 70 62 67 56 56 59 51 44 40 34 29 27 27 22 17 19 26 27 27 28 26 27 22 18 17 8 12 2
210 214 183 140 128 120 106 94 85 81 79 76 68 77 78 77 70 71 56 64 55 49 42 35 32 28 24 21 19 19 23 26 26 26 28 28 25 24 21 19 18 19
180 128 121 121 113 106 96 89 84 77 76 74 77 74 75 79 81 77 66 62 58 55 45 43 41 34 24 18 22 23 27 28 27 27 25 26 24 23 21 19 17 17
123 119 115 112 110 102 93 87 84 83 79 76 72 76 76 79 78 79 77 69 60 54 52 47 46 37 22 5 19 30 31 34 30 29 29 26 20 18 18 18 19 20
124 120 116 113 107 102 101 98 95 92 87 81 75 78 83 83 81 75 74 77 73 59 56 51 45 39 23 31 32 41 35 35 36 31 27 27 24 18 13 11 11 20
123 122 120 112 114 110 106 103 101 98 93 89 87 86 90 86 88 84 78 75 72 71 63 55 44 27 28 38 37 34 42 38 38 31 26 26 24 22 16 2 3 6
129 126 119 119 115 111 108 106 103 95 92 94 96 92 88 93 86 87 88 84 82 73 66 58 52 28 34 42 43 39 39 44 37 33 27 25 15 17 8 3 358 360
133 127 124 121 117 113 112 106 99 96 100 103 95 100 102 94 100 96 89 86 84 81 71 56 57 26 33 45 47 44 41 47 36 29 31 16 16 9 6 2 359 358
133 129 125 124 121 115 112 106 99 99 102 102 108 108 105 108 108 100 98 92 91 93 86 69 60 17 32 45 48 49 47 48 35 34 26 23 16 7 2 3 359 355
132 127 126 124 121 119 112 109 112 113 108 112 120 122 123 128 125 117 109 101 100 100 95 76 49 22 37 43 44 48 52 53 38 32 29 28 24 12 4 360 352 356
135 130 127 127 126 122 118 124 131 129 127 128 115 112 114 116 110 112 116 112 110 109 97 80 46 27 33 37 41 44 48 46 38 33 28 19 17 14 5 356 347 14
140 134 133 134 134 130 134 139 133 131 123 127 115 122 129 127 135 125 133 129 117 111 100 84 61 18 14 21 29 47 61 48 41 37 29 24 7 4 4 3 352 26
143 139 137 140 142 142 144 135 122 118 143 148 133 139 136 149 141 135 142 136 125 113 108 103 80 41 23 12 18 33 58 50 33 44 40 16 359 11 7 13 16 29
144 141 141 143 140 140 134 140 151 149 137 116 124 131 140 148 148 137 152 154 145 114 104 100 91 70 40 5 26 28 39 38 31 34 34 14 357 1 7 18 9 13
148 144 142 143 147 146 150 146 136 127 131 125 121 131 144 153 151 151 154 166 83 58 64 119 110 100 87 13 34 31 24 38 32 38 16 358 1 16 4 8 11 5